GW5243 Weather Reports


Display with metric or nautical units.
time (UTC)temp
F
wind
direction
speed
MPH
gust
MPH
rain 1hr
in
rain 24hr
in
rain mn
in
humidity
%
barometer
mb
20260504043034 30 333 0.0 0.0 0.00 0.00 0.00 90 1008.5
20260504041507 29 333 0.0 0.0 0.00 0.00 0.00 88 1008.4
20260504040021 29 326 0.0 0.0 0.00 0.00 0.00 87 1008.3
20260504034518 29 326 0.0 0.0 0.00 0.00 0.00 86 1008.3
20260504033022 30 298 0.0 0.0 0.00 0.00 0.00 85 1008.4
20260504031525 30 298 0.0 0.0 0.00 0.00 0.00 85 1008.4
20260504030015 30 300 0.0 0.0 0.00 0.00 0.00 84 1008.2
20260504024516 31 300 0.0 0.0 0.00 0.00 0.00 82 1008.3
20260504023024 32 300 0.0 0.0 0.00 0.00 0.00 81 1008.4
20260504021532 32 300 0.0 0.0 0.00 0.00 0.00 80 1008.6
20260504020035 33 300 0.0 0.0 0.00 0.00 0.00 79 1008.4
20260504014517 33 291 0.0 0.0 0.00 0.00 0.00 78 1008.4
20260504013019 34 290 0.0 0.0 0.00 0.00 0.00 77 1008.3
20260504011524 35 290 0.0 0.0 0.00 0.00 0.00 78 1008.1
20260504010004 35 290 0.0 0.0 0.00 0.00 0.00 77 1007.7
20260504004517 36 290 0.0 0.0 0.00 0.00 0.00 76 1007.6
20260504003013 37 290 0.0 2.0 0.00 0.00 0.00 74 1007.6
20260504001505 39 281 1.0 3.0 0.00 0.00 0.00 71 1007.3
20260504000004 42 296 0.0 2.0 0.00 0.00 0.00 60 1007.2
20260503234509 44 255 0.0 2.0 0.00 0.00 0.00 53 1007.2
20260503233010 45 69 3.0 7.0 0.00 0.00 0.00 53 1007.0
20260503231521 46 209 0.0 4.0 0.00 0.00 0.00 49 1006.9
20260503230004 46 319 1.0 5.0 0.00 0.00 0.00 49 1006.9
20260503224508 46 304 3.0 6.0 0.00 0.00 0.00 47 1006.9
20260503223013 46 333 2.0 5.0 0.00 0.00 0.00 51 1006.8
20260503221515 47 275 2.0 6.0 0.00 0.00 0.00 47 1006.7
20260503220018 47 288 2.0 9.0 0.00 0.00 0.00 47 1006.7
20260503214508 48 252 4.0 10.0 0.00 0.00 0.00 47 1006.5
20260503213007 48 350 3.0 11.0 0.00 0.00 0.00 48 1006.4
20260503211513 47 231 1.0 9.0 0.00 0.00 0.00 47 1006.4
20260503210016 47 347 1.0 12.0 0.00 0.00 0.00 46 1006.3
20260503204522 47 325 3.0 9.0 0.00 0.00 0.00 48 1006.5
20260503203004 47 329 3.0 12.0 0.00 0.01 0.00 47 1006.2
20260503201512 48 351 5.0 16.0 0.00 0.02 0.00 43 1006.2
20260503200016 49 223 4.0 15.0 0.00 0.03 0.00 44 1006.1
20260503194521 48 304 4.0 15.0 0.00 0.04 0.00 40 1006.2
20260503193031 48 5 5.0 13.0 0.00 0.06 0.00 45 1006.2
20260503191515 47 246 3.0 14.0 0.00 0.08 0.00 42 1006.3
20260503190012 48 279 3.0 14.0 0.00 0.08 0.00 45 1006.4
20260503184515 47 322 7.0 16.0 0.00 0.08 0.00 43 1006.4
20260503183020 48 83 1.0 14.0 0.00 0.08 0.00 44 1006.0
20260503181527 48 263 3.0 12.0 0.00 0.08 0.00 43 1006.0
20260503180009 47 344 4.0 12.0 0.00 0.08 0.00 44 1006.0
20260503174524 48 339 6.0 18.0 0.00 0.08 0.00 43 1006.0
20260503173028 49 295 6.0 14.0 0.00 0.08 0.00 44 1005.8
20260503171522 49 34 3.0 13.0 0.00 0.08 0.00 46 1005.9
20260503081540 0 0.0 0.0 0.00 0.19 0.00 1007.9
20260503071521 35 313 0.0 2.0 0.00 0.19 0.00 96 1008.2
20260503054515 35 323 0.0 2.0 0.00 0.27 0.00 95 1009.1
20260503053017 35 284 0.0 2.0 0.00 0.27 0.00 96 1009.2
20260503051531 35 279 0.0 2.0 0.00 0.27 0.00 96 1009.4
20260503050020 35 275 0.0 2.0 0.00 0.27 0.00 96 1009.5
20260503044507 35 9 0.0 2.0 0.00 0.27 0.00 95 1009.6